This is the latest recevied weather packets stored in our database for station/object K3MV-13. If no packets are shown the sender has not sent any weather packets the latest 10 day(s).
| Time | Temp. | Humidity | Pressure | Rain* | Wind** | Luminosity | Snow |
|---|---|---|---|---|---|---|---|
| 1777671347 | 11.11° C | 55% | 1010.5 hPa | 0 mm | - | 116 W/m² | - |
| 1777671043 | 11.11° C | 54% | 1010.9 hPa | 0 mm | - | 136 W/m² | - |
| 1777670740 | 11.67° C | 52% | 1010.6 hPa | 0 mm | - | 116 W/m² | - |
| 1777670437 | 11.67° C | 50% | 1010.7 hPa | 0 mm | - | 185 W/m² | - |
| 1777670134 | 11.67° C | 52% | 1010.6 hPa | 0 mm | - | 98 W/m² | - |
| 1777669832 | 11.67° C | 50% | 1010.4 hPa | 0 mm | - | 107 W/m² | - |
| 1777669527 | 11.67° C | 51% | 1010.5 hPa | 0 mm | - | 126 W/m² | - |
| 1777669224 | 11.67° C | 48% | 1010.2 hPa | 0 mm | - | 154 W/m² | - |
| 1777668921 | 11.67° C | 48% | 1010.3 hPa | 0 mm | - | 70 W/m² | - |
| 1777668619 | 12.22° C | 46% | 1010.5 hPa | 0 mm | - | 82 W/m² | - |
| 1777668314 | 12.22° C | 44% | 1010.4 hPa | 0 mm | - | 121 W/m² | - |
| 1777668011 | 12.22° C | 46% | 1010.3 hPa | 0 mm | - | 80 W/m² | - |
| 1777667708 | 12.78° C | 42% | 1010.4 hPa | 0 mm | - | 73 W/m² | - |
| 1777667406 | 12.78° C | 44% | 1010.2 hPa | 0 mm | - | 124 W/m² | - |
| 1777667102 | 12.78° C | 45% | 1010 hPa | 0 mm | - | 74 W/m² | - |
| 1777666798 | 12.78° C | 44% | 1010.4 hPa | 0 mm | - | 64 W/m² | - |
| 1777666496 | 12.78° C | 42% | 1010.1 hPa | 0 mm | - | 101 W/m² | - |
| 1777666193 | 13.33° C | 40% | 1010.1 hPa | 0 mm | - | 96 W/m² | - |
| 1777665890 | 13.33° C | 40% | 1010.2 hPa | 0 mm | - | 120 W/m² | - |
| 1777665587 | 13.33° C | 41% | 1010.2 hPa | 0 mm | - | 144 W/m² | - |
| 1777665284 | 13.33° C | 37% | 1010.1 hPa | 0 mm | - | 192 W/m² | - |
| 1777664979 | 12.78° C | 39% | 1010.1 hPa | 0 mm | - | 201 W/m² | - |
| 1777664675 | 12.78° C | 41% | 1010.3 hPa | 0 mm | - | 220 W/m² | - |
| 1777664371 | 12.78° C | 40% | 1010.4 hPa | 0 mm | - | 109 W/m² | - |
| 1777664070 | 12.78° C | 40% | 1010.4 hPa | 0 mm | - | 168 W/m² | - |
* Rain latest hour (hover to see other rain measurements)
** Current wind speed in m/s (hover to see current wind gust speed)